User: anonymous   Login
Location: Andrest
(43.3200°N, 0.0641°E)
Time: 22:17:50
(UTC+00:00)
Language:

Cosmos 1500 - Orbit

View from above orbital plane
View from above orbital plane
View from above satellite
View from above satellite

Ground track
Ground track

The orbit data is extracted from the following two-line orbital elements,

1 14372U 83099A   21059.51202848  .00000960  00000-0  44007-4 0  9997
2 14372  82.5123  85.4860 0016370  62.8366  88.7046 15.19130893 42659
Epoch (UTC): 28 February 2021 12:17:19
Eccentricity: 0.0016370
inclination: 82.5123°
perigee height: 497 km
apogee height: 520 km
right ascension of ascending node: 85.4860°
argument of perigee: 62.8366°
revolutions per day: 15.19130893
mean anomaly at epoch: 88.7046°
orbit number at epoch: 4265

The dashed part of the orbit path shows where the satellite is in the earth's shadow,  

DLR